Погода Тасты

Хотите узнать прогноз погоды Тасты? Тогда Вам сюда: Погода Тасты

Поиск расширенной информации на нашем сайте:

Полезная информация:

Новости сайта



02.01.2020
Опубликован Долгосрочный прогноз погоды по городам России и ближнего зарубежья на январь 2020 года.
Карты: Прогноз на январь и февраль 2020 года, Сравнение прогнозируемой аномалии приземной температуры воздуха на январь 2020 года по разным моделям.




Погода Тасты - сегодня

Время (UTC), дата Ветер
(°,м/с) 
Видим.   Явления Облачность Т
(°С)
Тd
(°С)
f(%) Тe
(°С)
Pmin
(гПа)
dP
(гПа)
Po
(мм)
O2
(г/м3)
Тmin Tmax R s Состояние
почвы
06 22.10.21 250 (З) 20000 м    4/0 средняя 
[Ac cuf]
+5.5 -1.9 59 +5  1034.5  1.1  757  299  -1.4         
09 22.10.21 290 (З) 20000 м    9/4 600 м кучево-дожд., средняя, верхняя 
[Cb cap|Ac As|Ci fib]
+8 -6.7 35 +6  1032.8  -0.5  757  297           
12 22.10.21 270 (З) 20000 м    8/3 1000 м кучево-дожд., средняя, верхняя 
[Cb calv|Ac cast|Ci fib]
+8.4 -9 28 +7  1032.5  0.8  758  297           
15 22.10.21 270 (З) н/о    10/10 600 м кучево-дожд. 
[Cb cap]
+6.5 -5.3 43 +7  1035.2  1.5  759  299    +9.5       
18 22.10.21 250 (З) н/о    9/6 600 м кучево-дожд., средняя 
[Cb cap|Ac As]
+6 -4.5 47 +7  1035.7  0.8  759  300    +9.5       
21 22.10.21 270 (З) н/о    8/5 1000 м кучево-дожд., средняя 
[Cb cap|Ac As]
+3.5 -3.9 58 +4  1036.2  0.2  759  302           
00 23.10.21 тихо ()   н/о    6/4 1000 м кучево-дожд., средняя 
[Cb cap|Ac As]
+3 -3.5 62 +3  1036.3  0.1  759  303           
06 23.10.21 140 (ЮВ) 20000 м    4/0 средняя, верхняя 
[Ac cast|Ci fib]
+9.4 -5 36 +9  1035.7  -0.5  759  296  +2.3         
09 23.10.21 160 (Ю) 20000 м    ясно 
+12 -7.4 25 +11  1033.5  -2  758  293           
12 23.10.21 110 (В) 20000 м    ясно 
+11.7 -7.4 26 +12  1032.9  -0.6  757  293           
15 23.10.21 070 (В) н/о    ясно 
+7.3 -4.4 43 +7  1033.7  0.5  758  298    +12.6       
18 23.10.21 090 (В) н/о    ясно 
+3.4 -3.7 60 +1  1032.7  -1.4  757  302    +12.6       
21 23.10.21 070 (В) н/о    ясно 
+1.4 -3.5 70 -1  1031.6  -1.2  756  303           
00 24.10.21 070 (В) н/о    ясно 
+0.3 -4.1 72 -3  1030.9  -0.7  755  304           
03 24.10.21 090 (В) 20000 м    ясно 
+0.3 -4.4 71 -1  1030.3  -0.6  755  304           
06 24.10.21 090 (В) 20000 м    ясно 
+10.3 -3.8 37 +9  1027.6  -1.9  753  293  -0.5         
09 24.10.21 070 (В) 20000 м    ясно 
+16.1 -6 21 +16  1023.9  -3.1  751  286           
12 24.10.21 070 (В) 20000 м    ясно 
+16.9 -6.7 19 +17  1022.2  -1.7  750  285           
15 24.10.21 090 (В) н/о    ясно 
+11.2 -3 37 +10  1022.4  -0.2  750  290    +17.6       
18 24.10.21 070 (В) н/о    ясно 
+6.3 -2.5 53 +5  1021.4  -1.4  749  295    +17.6       
21 24.10.21 070 (В) н/о    ясно 
+3.1 -3 64 +1  1020  -1.5  747  298           
00 25.10.21 070 (В) н/о    ясно 
+2.7 -2.5 69 +1  1019.1  -1  747  298           
03 25.10.21 090 (В) 20000 м    ясно 
+2.9 -2.6 67 +2  1019.2  0.1  747  298           
06 25.10.21 070 (В) 20000 м    ясно 
+10.8 -3 38 +11  1017.6  -0.9  746  289  +1.9         
09 25.10.21 тихо ()   20000 м    ясно 
+17.5 -1.2 28 +18  1014.9  0.8  744  282           
Время (UTC), дата Ветер
(°,м/с) 
Видим.   Явления Облачность Т
(°С)
Тd
(°С)
f(%) Тe
(°С)
Pmin
(гПа)
dP
(гПа)
Po
(мм)
O2
(г/м3)
Тmin Tmax R s Состояние
почвы

Для получения пояснительной информации подведите курсор к названию столбца.

ПОГОДА Тасты - архив

Всё, что Вы хотите узнать о погоде Тасты - удобно и подробно!

Выберите нужную дату (начиная с 1 января 2019* года) и нажмите кнопку "Найти".
Будут отображены архивные сводки погоды по пункту Тасты, начиная с указанной даты.


Отображать данные в формате CSV (для использования в таблицах Excel)


Внимание! Наш архив погоды предназначен исключительно для личного некоммерческого использования в познавательных целях. Если Вам необходимы официальные справки о состоянии погоды (для производственных, юридических, коммерческих и т.п. целей), обращайтесь в органы Росгидромета.

*Примечание: данная дата относится к архиву по метеостанциям СССР (Россия, СНГ, Балтия).
Архив по метеостанциям Зарубежной Европы и Азии (кроме Китая) хранится 10 дней, по другим регионам земного шара (Китай, Африка, Америка, Австралия, Океания) - 1 день.

Тасты - район местоположения метеостанции


Название, широта, долгота, высота метеостанции:
Тасты 44.8°ш. 69.1°д. 190 м над ур. моря [Казахстан]

Дополнительная информация

В oтличие oт бoльшинства пoгoдных сайтoв мы публикуем пoдрoбную метеoинфoрмацию в детальнoм прoфессиoнальнoм фoрмате.

Характеристики температуры и влажнoсти вoздуха измеряются на высoте 2 м в тени вдали oт зданий и деревьев.
Скoрoсть ветра измеряется на высoте 10 м (на урoвне рoста челoвека скoрoсть ветра ниже в 1.5-2 раза). Если метеoстанция нахoдится в гoрoде или в лесу, тo скoрoсть ветра занижена на 2-4 м/с пo сравнению с oткрытым местoм. Скoрoсть ветра над акватoриями крупных рек и oзёр, а также на вершинах хoлмoв на 2-5 м/с выше, чем в oбычных услoвиях.
Атмoсфернoе давление в разных тoчках местнoсти мoжет значительнo oтличаться oт давления на метеoстанции, в зависимoсти oт услoвий рельефа (при пoдъёме на 10 м давление пoнижается примернo на 1 мм рт.ст.).